When you browse on this site, cookies collect data to enhance your experience and personalize the content and advertising you see.
Visit our Privacy Policy to learn more. By continuing to use the site, you agree to this use of cookies and data.
  • In United Kingdom
  • List of Countries
  • For 7 days
  • Water Temperature
  • Satellite Maps
  • Weather Map
  • Weather Widgets
  • user-avatar
    Login

    Hourly Weather Vasylivka Persha

    Today, 24 April, Wednesday

    Time Temperature Precipitation Wind Pressure Humidity
    00:00 +14°C° 0 mm 1 mps 762 mmHg 48%
    01:00 +14°C° 0 mm 1 mps 762 mmHg 49%
    02:00 +14°C° 0 mm 2 mps 762 mmHg 46%
    03:00 +13°C° 0 mm 2 mps 762 mmHg 50%
    04:00 +13°C° 0 mm 2 mps 762 mmHg 53%
    05:00 +12°C° 0 mm 2 mps 762 mmHg 56%
    06:00 +14°C° 0 mm 2 mps 762 mmHg 53%
    07:00 +16°C° 0 mm 2 mps 762 mmHg 49%
    08:00 +18°C° 0 mm 2 mps 762 mmHg 45%
    09:00 +19°C° 0 mm 3 mps 762 mmHg 40%
    10:00 +20°C° 0 mm 3 mps 762 mmHg 36%
    11:00 +22°C° 0 mm 3 mps 762 mmHg 31%
    12:00 +22°C° 0 mm 3 mps 761 mmHg 32%
    13:00 +22°C° 0 mm 3 mps 761 mmHg 33%
    14:00 +22°C° 0 mm 3 mps 761 mmHg 34%
    15:00 +22°C° 0 mm 3 mps 761 mmHg 37%
    16:00 +21°C° 0 mm 2 mps 761 mmHg 40%
    17:00 +21°C° 0 mm 2 mps 761 mmHg 44%
    18:00 +20°C° 0 mm 2 mps 761 mmHg 46%
    19:00 +19°C° 0 mm 2 mps 761 mmHg 48%
    20:00 +19°C° 0 mm 1 mps 761 mmHg 51%
    21:00 +18°C° 0 mm 1 mps 761 mmHg 53%
    22:00 +16°C° 0 mm 1 mps 761 mmHg 56%
    23:00 +15°C° 0 mm 1 mps 761 mmHg 58%

    Tomorrow, 25 April, Thursday

    Time Temperature Precipitation Wind Pressure Humidity
    00:00 +14°C° 0 mm 1 mps 761 mmHg 60%
    01:00 +14°C° 0 mm 1 mps 761 mmHg 62%
    02:00 +13°C° 0 mm 1 mps 761 mmHg 64%
    03:00 +13°C° 0 mm 1 mps 761 mmHg 66%
    04:00 +13°C° 0 mm 1 mps 761 mmHg 67%
    05:00 +13°C° 0 mm 1 mps 761 mmHg 68%
    06:00 +15°C° 0 mm 1 mps 762 mmHg 63%
    07:00 +18°C° 0 mm 1 mps 762 mmHg 57%
    08:00 +20°C° 0 mm 1 mps 762 mmHg 51%
    09:00 +21°C° 0 mm 1 mps 762 mmHg 47%
    10:00 +22°C° 0 mm 1 mps 762 mmHg 43%
    11:00 +23°C° 0 mm 2 mps 762 mmHg 39%
    12:00 +24°C° 0 mm 1 mps 761 mmHg 37%
    13:00 +24°C° 0 mm 1 mps 761 mmHg 36%
    14:00 +25°C° 0 mm 1 mps 761 mmHg 35%
    15:00 +24°C° 0 mm 1 mps 760 mmHg 36%
    16:00 +24°C° 0 mm 1 mps 760 mmHg 37%
    17:00 +22°C° 0 mm 0 mps 760 mmHg 38%
    18:00 +20°C° 0 mm 0 mps 760 mmHg 42%
    19:00 +19°C° 0 mm 0 mps 760 mmHg 45%
    20:00 +17°C° 0 mm 0 mps 760 mmHg 49%
    21:00 +17°C° 0 mm 0 mps 760 mmHg 50%
    22:00 +16°C° 0 mm 0 mps 760 mmHg 52%
    23:00 +16°C° 0 mm 0 mps 759 mmHg 53%

    Day after tomorrow, 26 April, Friday

    Time Temperature Precipitation Wind Pressure Humidity
    00:00 +15°C° 0 mm 0 mps 759 mmHg 54%
    01:00 +15°C° 0 mm 0 mps 759 mmHg 56%
    02:00 +14°C° 0 mm 0 mps 759 mmHg 57%
    03:00 +14°C° 0 mm 0 mps 759 mmHg 59%
    04:00 +14°C° 0 mm 0 mps 759 mmHg 60%
    05:00 +14°C° 0 mm 0 mps 759 mmHg 62%
    06:00 +16°C° 0 mm 0 mps 759 mmHg 57%
    07:00 +18°C° 0 mm 0 mps 759 mmHg 52%
    08:00 +20°C° 0 mm 0 mps 759 mmHg 47%
    09:00 +21°C° 0 mm 0 mps 759 mmHg 44%
    10:00 +22°C° 0 mm 0 mps 758 mmHg 41%
    11:00 +23°C° 0 mm 0 mps 758 mmHg 38%
    12:00 +23°C° 0 mm 0 mps 758 mmHg 38%
    13:00 +23°C° 0 mm 0 mps 758 mmHg 38%
    14:00 +22°C° 0 mm 0 mps 758 mmHg 38%
    15:00 +24°C° 0 mm 1 mps 757 mmHg 42%
    16:00 +23°C° 0 mm 1 mps 757 mmHg 46%
    17:00 +23°C° 0 mm 1 mps 757 mmHg 49%
    18:00 +22°C° 0.1 mm 1 mps 757 mmHg 52%
    19:00 +21°C° 0.1 mm 1 mps 757 mmHg 54%
    20:00 +18°C° 0.1 mm 0 mps 757 mmHg 56%
    21:00 +19°C° 0.6 mm 1 mps 757 mmHg 60%
    22:00 +18°C° 0.6 mm 1 mps 757 mmHg 64%
    23:00 +18°C° 0.6 mm 1 mps 757 mmHg 68%

    27 April, Saturday

    Time Temperature Precipitation Wind Pressure Humidity
    00:00 +16°C° 0.6 mm 1 mps 757 mmHg 71%
    01:00 +16°C° 0.6 mm 2 mps 756 mmHg 75%
    02:00 +15°C° 0.6 mm 2 mps 756 mmHg 78%
    03:00 +15°C° 0 mm 2 mps 756 mmHg 77%
    04:00 +15°C° 0 mm 2 mps 756 mmHg 76%
    05:00 +15°C° 0 mm 2 mps 756 mmHg 75%
    06:00 +16°C° 0 mm 2 mps 756 mmHg 72%
    07:00 +16°C° 0 mm 2 mps 756 mmHg 69%
    08:00 +17°C° 0 mm 2 mps 756 mmHg 66%
    09:00 +19°C° 0 mm 3 mps 755 mmHg 58%
    10:00 +20°C° 0 mm 3 mps 755 mmHg 50%
    11:00 +22°C° 0 mm 3 mps 755 mmHg 43%
    12:00 +22°C° 0 mm 3 mps 755 mmHg 40%
    13:00 +24°C° 0 mm 3 mps 754 mmHg 37%
    14:00 +24°C° 0 mm 3 mps 754 mmHg 35%
    15:00 +22°C° 0 mm 3 mps 754 mmHg 41%
    16:00 +21°C° 0 mm 3 mps 753 mmHg 48%
    17:00 +20°C° 0 mm 3 mps 753 mmHg 54%
    18:00 +19°C° 0 mm 3 mps 753 mmHg 56%
    19:00 +18°C° 0 mm 3 mps 753 mmHg 58%
    20:00 +17°C° 0 mm 3 mps 753 mmHg 60%
    21:00 +16°C° 0 mm 3 mps 753 mmHg 61%
    22:00 +16°C° 0 mm 3 mps 753 mmHg 61%
    23:00 +15°C° 0 mm 2 mps 752 mmHg 62%

    28 April, Sunday

    Time Temperature Precipitation Wind Pressure Humidity
    00:00 +15°C° 0 mm 2 mps 752 mmHg 63%
    01:00 +14°C° 0 mm 2 mps 752 mmHg 64%
    02:00 +14°C° 0 mm 2 mps 752 mmHg 65%
    03:00 +14°C° 0 mm 2 mps 752 mmHg 66%
    04:00 +13°C° 0 mm 2 mps 751 mmHg 68%
    05:00 +13°C° 0 mm 2 mps 751 mmHg 70%
    06:00 +15°C° 0 mm 2 mps 751 mmHg 64%
    07:00 +17°C° 0 mm 2 mps 751 mmHg 58%
    08:00 +19°C° 0 mm 2 mps 751 mmHg 53%
    09:00 +20°C° 0 mm 2 mps 751 mmHg 48%
    10:00 +21°C° 0 mm 3 mps 751 mmHg 44%
    11:00 +22°C° 0 mm 3 mps 750 mmHg 40%
    12:00 +23°C° 0 mm 4 mps 750 mmHg 40%
    13:00 +23°C° 0 mm 4 mps 750 mmHg 40%
    14:00 +23°C° 0 mm 4 mps 749 mmHg 40%
    15:00 +23°C° 0 mm 4 mps 749 mmHg 44%
    16:00 +22°C° 0 mm 3 mps 749 mmHg 47%
    17:00 +22°C° 0 mm 3 mps 749 mmHg 50%
    18:00 +20°C° 0 mm 2 mps 749 mmHg 53%
    19:00 +19°C° 0 mm 2 mps 749 mmHg 56%
    20:00 +18°C° 0 mm 2 mps 749 mmHg 59%
    21:00 +17°C° 0 mm 2 mps 749 mmHg 60%
    22:00 +17°C° 0 mm 2 mps 749 mmHg 61%
    23:00 +16°C° 0 mm 2 mps 749 mmHg 62%

    29 April, Monday

    Time Temperature Precipitation Wind Pressure Humidity
    00:00 +16°C° 0 mm 2 mps 749 mmHg 64%
    01:00 +15°C° 0 mm 2 mps 749 mmHg 67%
    02:00 +15°C° 0 mm 2 mps 749 mmHg 69%
    03:00 +14°C° 0 mm 2 mps 749 mmHg 74%
    04:00 +14°C° 0 mm 2 mps 749 mmHg 78%
    05:00 +14°C° 0 mm 2 mps 749 mmHg 83%
    06:00 +12°C° 0.7 mm 4 mps 750 mmHg 85%
    07:00 +12°C° 0.7 mm 5 mps 750 mmHg 87%
    08:00 +10°C° 0.7 mm 6 mps 750 mmHg 88%
    09:00 +10°C° 0.9 mm 6 mps 751 mmHg 88%
    10:00 +9°C° 0.9 mm 6 mps 751 mmHg 87%
    11:00 +8°C° 0.9 mm 6 mps 751 mmHg 87%
    12:00 +8°C° 1.1 mm 6 mps 751 mmHg 86%
    13:00 +8°C° 1.1 mm 6 mps 752 mmHg 85%
    14:00 +8°C° 1.1 mm 6 mps 752 mmHg 84%
    15:00 +8°C° 0.7 mm 6 mps 752 mmHg 82%
    16:00 +8°C° 0.7 mm 6 mps 752 mmHg 81%
    17:00 +8°C° 0.7 mm 6 mps 753 mmHg 80%
    18:00 +8°C° 0.1 mm 5 mps 753 mmHg 80%
    19:00 +8°C° 0.1 mm 5 mps 754 mmHg 80%
    20:00 +8°C° 0.1 mm 4 mps 754 mmHg 79%
    21:00 +7°C° 0.1 mm 5 mps 754 mmHg 77%
    22:00 +7°C° 0.1 mm 5 mps 755 mmHg 75%
    23:00 +5°C° 0.1 mm 6 mps 755 mmHg 73%
    Show more